Regional Weather Roundup
Issued by NWS

Home | Current Version | Previous Version | Graphics & Text | Print | Product List | Glossary On
Versions: 1 2 3 4 5 6 7 8 9 10 11 12 13 14 15 16 17 18 19 20 21 22 23 24 25 26 27 28 29 30 31 32 33 34 35 36 37 38 39 40 41 42 43 44 45 46 47 48 49 50
000
ASUS43 KFSD 301602
RWRSD

WEATHER ROUNDUP FOR SOUTH DAKOTA
NATIONAL WEATHER SERVICE SIOUX FALLS SD
1000 AM CST FRI JAN 30 2015

NOTE: "FAIR" INDICATES FEW OR NO CLOUDS BELOW 12,000 FEET WITH NO
SIGNIFICANT WEATHER AND/OR OBSTRUCTIONS TO VISIBILITY.


SDZ001>005-009-010-012>017-301700-
NORTHWEST AND NORTH CENTRAL SOUTH DAKOTA

CITY           SKY/WX    TMP DP  RH WIND       PRES   REMARKS
BUFFALO          N/A     30  21  69 W5        30.11R WCI  25
FAITH            N/A     27  19  72 SW7       30.18R WCI  19
MOBRIDGE       SUNNY     25  21  85 VRB5      30.19S WCI  19
$$

SDZ012>016-024>037-041>051-057-063-072>074-301700-
SOUTHWEST AND SOUTH CENTRAL SOUTH DAKOTA

CITY           SKY/WX    TMP DP  RH WIND       PRES   REMARKS
RAPID CTY ARPT PTSUNNY   33  24  69 NW7       30.17S WCI  27
PIERRE         MOSUNNY   27  22  81 SE12      30.22F WCI  17
CUSTER           N/A    N/A N/A N/A MISG      30.17R
ELLSWORTH AFB  PTSUNNY   31  22  70 N7        30.17R WCI  25
PHILIP         PTSUNNY   26  20  77 W5        30.20F WCI  20
PINE RIDGE     CLOUDY    37  21  52 S13       30.19F
WINNER         FAIR      35  23  61 S23G30    30.24F WCI  23
$$

SDZ004>011-016>023-039-040-301700-
NORTHEAST SOUTH DAKOTA

CITY           SKY/WX    TMP DP  RH WIND       PRES   REMARKS
ABERDEEN       SUNNY     25  20  81 S20G25    30.28F WCI  11
WATERTOWN      SUNNY     22  19  89 S14       30.33F WCI   9
SISSETON         N/A     21  18  88 S15       30.35F WCI   8
$$

SDZ017-020-022-023-036>040-048>070-301700-
SOUTHEAST SOUTH DAKOTA

CITY           SKY/WX    TMP DP  RH WIND       PRES   REMARKS
SIOUX FALLS    MOSUNNY   24  19  81 S18       30.42F WCI  10
HURON          SUNNY     25  21  85 S17       30.32F WCI  12
MITCHELL       SUNNY     26  23  88 S16       30.37F WCI  14
YANKTON        SUNNY     25  21  86 SE8       30.45F WCI  16
$$

ABBREVIATIONS USED IN REMARKS
   TC - TEMPERATURE IN CELSIUS
  WCI - WIND CHILL INDEX
   HX - HEAT INDEX
  VSB - VISIBILITY




USA.gov is the U.S. government's official web portal to all federal, state and local government web resources and services.